Preview of NWS' New Version of Forecast
This preview is not operational and should not be used for support decisions.
Latest weather observations around

Wittman Regional Airport (KOSH)

Using English Units (Switch to International System of Units)
Date/ Time (CDT) Wind (mph) Vis. (mi) Weather Sky Cond. Temp (°F) Rel. Humidity Wind Chill (°F) Heat Index (°F) Pressure Precip. (in)
Air Dwpt 6 hour Altimeter (inHg) Sea level (inHg) 1 hr 3 hr 6 hr
Max Min
Aug 24 22:53 ESE 6 10 Clear CLR 61 53     75%     30.23 30.2      
Aug 24 21:53 ESE 5 10 Clear CLR 60 51     72%     30.23 30.21      
Aug 24 20:53 SE 5 10 Clear CLR 61 50     67%     30.24 30.22      
Aug 24 19:53 ESE 7 10 Clear CLR 63 52     67%     30.23 30.21      
Aug 24 18:53 SE 10 10 Clear CLR 69 53     57%     30.23 30.21      
Aug 24 17:53 ESE 8 10 Clear CLR 72 53     51%   71 30.23 30.21      
Aug 24 16:53 ESE 13 10 Mostly Clear FEW045 73 53     50%   72 30.23 30.21      
Aug 24 15:53 ESE 14 10 Partly Cloudy SCT048 73 55     53%   73 30.24 30.21      
Aug 24 14:53 ESE 10 10 Partly Cloudy SCT055 73 54     51%   72 30.25 30.23      
Aug 24 13:53 SSE 9 10 Cloudy BKN046 OVC055 74 54     50%   73 30.27 30.24      
Aug 24 12:53 E 11 10 Partly Cloudy FEW040 SCT055 73 55     53%   73 30.27 30.25      
Aug 24 11:53 E 9 10 Cloudy SCT035 BKN044 OVC050 70 55     59%     30.29 30.27      
Aug 24 10:53 ESE 10 10 Mostly Clear FEW026 72 57     59%   72 30.3 30.28      
Aug 24 09:53 ESE 10 10 Clear CLR 69 58     68%     30.31 30.29      
Aug 24 08:53 E 8 10 Clear CLR 68 57     68%     30.32 30.29      
Aug 24 07:53 E 7 10 Clear CLR 64 56     75%     30.32 30.3      
Notice The following observation data may not be complete
Aug 24 06:53 E 5 10 Clear CLR   55      %     30.32 30.3      
Notice The following observation data may not be complete
Aug 24 05:53 ENE 5 10 Clear CLR   54      %     30.32 30.29      
Notice The following observation data may not be complete
Aug 24 04:53 E 7 10 Clear CLR   53      %     30.3 30.28      
Notice The following observation data may not be complete
Aug 24 03:53 ENE 3 10 Clear CLR   52      %     30.29 30.27      
Aug 24 02:53 E 6 10 Clear CLR 62 51     67%     30.29 30.27      
Notice The following observation data may not be complete
Aug 24 01:53 E 6 10 Clear CLR   51      %     30.28 30.26      
Aug 24 00:53 E 3 10 Clear CLR 61 51     70%     30.28 30.26      
Aug 23 23:53 Calm 10 Clear CLR 60 51     72%     30.28 30.26      
Aug 23 22:53 Calm 10 Clear CLR 59 51     75%     30.27 30.25      
Aug 23 21:53 E 3 10 Clear CLR 62 51     67%     30.27 30.25      
Aug 23 20:53 E 9 10 Clear CLR 65 49     56%     30.25 30.23      
Aug 23 19:53 E 8 10 Mostly Clear FEW047 66 49     54%     30.24 30.22      
Aug 23 18:53 E 8 10 Partly Cloudy SCT055 68 50     53%     30.24 30.22      
Aug 23 17:53 NE 9 10 Clear CLR 70 52     53%     30.24 30.22      
Aug 23 16:53 NE 9 10 Clear CLR 72 46     40%   71 30.24 30.22      
Aug 23 15:53 ENE 8 10 Clear CLR 71 49     45%   70 30.24 30.22      
Aug 23 14:53 ENE 6 10 Clear CLR 70 50     49%     30.25 30.23      
Aug 23 13:53 ENE 7 10 Clear CLR 70 52     53%     30.25 30.24      
Aug 23 12:53 E 9 10 Clear CLR 68 52     57%     30.26 30.24      
Aug 23 11:53 6 10 Clear CLR 67 53     61%     30.27 30.26      
Aug 23 10:53 ENE 9 10 Clear CLR 66 53     63%     30.27 30.25      
Aug 23 09:53 ENE 10 10 Clear CLR 64 54     70%     30.27 30.25      
Aug 23 08:53 NE 9 10 Clear CLR 65 54     68%     30.26 30.24      
Aug 23 07:53 NE 11 10 Clear CLR 62 54     75%     30.23 30.22      
Aug 23 06:53 NE 9 10 Clear CLR 60 52     75%     30.21 30.2      
Aug 23 05:53 ENE 9 10 Clear CLR 60 53     78%     30.2 30.18      
Aug 23 04:53 NNE 5 10 Mostly Cloudy SCT025 BKN036 BKN075 60 56     86%     30.2 30.17      
Aug 23 03:53 Calm 10 Mostly Cloudy BKN070 55 52     89%     30.19 30.17      
Aug 23 02:53 Calm 10 Mostly Cloudy BKN075 56 53     90%     30.18 30.16      
Aug 23 01:53 Calm 10 Mostly Cloudy SCT070 BKN085 54 52     93%     30.16 30.14      
Aug 23 00:53 Calm 10 Mostly Cloudy BKN075 BKN090 56 52     87%     30.16 30.14      
Aug 22 23:53 Calm 10 Mostly Clear FEW085 56 52     87%     30.14 30.12      
Aug 22 22:53 Calm 10 Clear CLR 60 53     78%     30.13 30.11      
Aug 22 21:53 SSE 3 10 Mostly Cloudy BKN090 59        %     30.12 30.1      
Aug 22 20:53 SE 5 10 Cloudy OVC095 63        %     30.12 30.1      
Aug 22 19:53 SE 5 10 Cloudy BKN055 BKN075 OVC095 64        %     30.1 30.08      
Aug 22 18:53 ESE 7 10 Cloudy BKN065 OVC090 65        %     30.09 30.08      
Aug 22 17:53 E 10 10 Cloudy OVC065 66        %     30.08 30.07      
Aug 22 16:53 ENE 10 10 Cloudy BKN080 OVC090 67        %     30.07 30.06      
Aug 22 15:53 NNE 14 10 Cloudy BKN080 OVC090 69        %     30.07 30.05      
Aug 22 14:53 NE 7 10 Cloudy OVC095 71        %     30.08 30.06      
Aug 22 13:53 NE 9 10 Cloudy BKN070 OVC095 70        %     30.07 30.05      
Aug 22 12:53 NE 8 10 Cloudy OVC095 70        %     30.07 30.05      
Aug 22 11:53 ENE 5 10 Cloudy FEW033 SCT050 OVC090 69        %     30.08 30.05      
Aug 22 10:53 NNE 5 10 Cloudy FEW033 OVC085 69        %     30.07 30.05      
Aug 22 09:53 Calm 10 Cloudy FEW026 OVC085 69        %     30.06 30.03      
Aug 22 08:53 SSW 3 10 Cloudy OVC085 66        %     30.06 30.03      
Aug 22 07:53 SE 6 10 Mostly Clear FEW080 64        %     30.04 30.01      
Aug 22 06:53 S 3 10 Clear CLR 54        %     30.05 30.02      
Aug 22 05:53 Calm 10 Clear CLR 55        %     30.03 30.01      
Aug 22 04:53 Calm 10 Clear CLR 55        %     30.02 29.99      
Aug 22 03:53 NNW 3 10 Clear CLR 56        %     30.01 29.98      
Aug 22 02:53 Calm 10 Partly Cloudy SCT065 57        %     30.02 29.99      
Aug 22 01:53 NE 8 10 Partly Cloudy SCT065 63        %     30.02 29.99      
Aug 22 00:53 Calm 10 Clear CLR 63 49     60%     30.02 29.99      
Aug 21 23:53 N 6 10 Mostly Cloudy BKN065 63 49     60%     30.02 29.99      
May 15 05:53 WNW 8 10 Cloudy FEW070 OVC090 59 58     96%     29.89 29.88      
May 14 10:53 NE 6 10 Clear CLR 65 58     78%     29.88 29.86      
May 13 04:53 Calm 10 Cloudy OVC025 45 43     93%     30.07 30.08      
May 12 07:53 ENE 11 10 Clear CLR 46 35     65% 41   30.13 30.14      
May 11 20:53 ENE 14 10 Cloudy BKN010 OVC016 42 39     89% 35   30.05 30.07      
Jun 12 05:53 SSW 9 10 Clear CLR 77 65     66%   78 29.83 29.77      
Jun 11 15:53 S 15 10 Clear CLR 87 68     53%   91 29.82 29.77      
Jun 10 17:53 SSW 28 10 Clear and Breezy   88 57     35%   87 29.59 29.55      
Notice The following observation data may not be complete
Jun 09 10:04   10 Mostly Clear FEW009          %              
Jun 09 06:33 N 7 9 Partly Cloudy SCT007 62 59     90%     29.78        
Jun 08 19:53 SSW 5 10 Cloudy SCT070 BKN085 OVC120 75 51     43%   74 29.79        
Jun 08 06:53 W 5 10 Clear CLR 63 45     52%     30.02 29.99      
Jun 07 10:53 NW 3 10 Clear CLR 73 52     48%   72 30.16 30.14      
Jun 05 15:53 ENE 7 10 Clear CLR 72 54     53%   71 29.95